Regional Weather Roundup
Issued by NWS

Home | Current Version | Previous Version | Graphics & Text | Print | Product List | Glossary Off
Versions: 1 2 3 4 5 6 7 8 9 10 11 12 13 14 15 16 17 18 19 20 21 22 23 24 25 26 27 28 29 30 31 32 33 34 35 36 37 38 39 40 41 42 43 44 45 46 47 48 49 50

000
ASUS43 KTOP 231908
RWRKS

WEATHER ROUNDUP FOR KANSAS
NATIONAL WEATHER SERVICE GOODLAND KS
200 PM CDT WED MAY 23 2018

NOTE:  "FAIR" INDICATES FEW OR NO CLOUDS BELOW 12,000 FEET WITH NO
SIGNIFICANT WEATHER AND/OR OBSTRUCTIONS TO VISIBILITY.

KSZ001>006-013>018-027>032-041>047-232000-
NORTHWEST KANSAS

CITY           SKY/WX    TMP DP  RH WIND       PRES   REMARKS
GOODLAND       PTSUNNY   81  53  37 S15G31    29.98F
HAYS           PTSUNNY   86  62  44 S20G26    29.99F
HILL CITY      CLOUDY    83  61  47 S15G30    29.99S
RUSSELL        PTSUNNY   85  67  54 S18G28    29.99F
$$

KSZ061>065-074>080-084>089-232000-
SOUTHWEST KANSAS

CITY           SKY/WX    TMP DP  RH WIND       PRES   REMARKS
DODGE CITY     CLOUDY    83  63  50 S17       30.03F
ELKHART        MOSUNNY   81  63  54 S20G25    30.06F
GARDEN CITY    PTSUNNY   81  58  45 S18       30.02F
GREAT BEND     PTSUNNY   84  66  54 S15       30.01F
LIBERAL        CLOUDY    81  59  47 S16       30.06F
PRATT          CLOUDY    87  60  40 S21       30.02F
$$

KSZ066>073-081>083-090>101-232000-
SOUTHEAST KANSAS

CITY           SKY/WX    TMP DP  RH WIND       PRES   REMARKS
CHANUTE        SUNNY     85  69  58 VRB3      30.06F
COFFEYVILLE    TSTM      76  71  85 SE7       30.04F
HUTCHINSON     MOSUNNY   88  66  48 SE17G26   30.01F
MEDICINE LODGE   N/A     87  65  47 S10G24    29.99F
NEWTON         MOSUNNY   86  64  47 SE14G21   30.04F
PARSONS        MOSUNNY   85  68  56 CALM      30.06F
WICHITA INTL   PTSUNNY   86  65  49 S13       30.03F
WICHITA JABRA  CLOUDY    84  66  54 S9        30.04F
WICHITA MCCONL CLOUDY    86  63  45 S13       30.03F
WINFIELD       CLOUDY    85  67  54 VRB3      30.04F
$$

KSZ007>012-019>026-033>040-048>060-102>105-232000-
NORTHEAST KANSAS

CITY           SKY/WX    TMP DP  RH WIND       PRES   REMARKS
CONCORDIA      MOSUNNY   87  62  43 S17G24    30.01F
EMPORIA        CLOUDY    75  63  66 S6        30.07F
LAWRENCE       MOSUNNY   87  66  49 E9        30.07F
MANHATTAN      MOSUNNY   89  66  46 S14       30.03F
MARYSVILLE     MOSUNNY   88  64  45 S12G18    30.03F
OLATHE IND     MOSUNNY   88  66  48 S8        30.09F
OLATHE EXE     MOSUNNY   84  66  54 S12       30.09F
SALINA         MOSUNNY   90  62  39 SE12G28   30.00F
TOPEKA BILLARD MOSUNNY   88  67  49 SE8G17    30.06F
TOPEKA FORBES  MOSUNNY   89  67  47 S8        30.06F
$$




USA.gov is the U.S. government's official web portal to all federal, state and local government web resources and services.